Location: Peebles
(55.6412°N, 3.1714°W)
Time: 17:52:12
(UTC+01:00)

Cosmos 1934 Rocket - Pass Details

Date: 27 January 2022
Orbit: 938 x 999 km, 83.0° (Epoch: 25 May)

Event Time Altitude Azimuth Distance (km) Brightness Sun altitude
Rises 19:35:44 0° 344° (NNW) 3,652 7.3 -24.9°
Reaches altitude 10° 19:38:33 10° 334° (NNW) 2,692 6.7 -25.3°
Maximum altitude 19:43:40 29° 277° (W) 1,682 5.9 -26.0°
Drops below altitude 10° 19:48:42 10° 220° (SW) 2,655 6.7 -26.7°
Sets 19:51:29 0° 210° (SSW) 3,592 7.3 -27.1°
